Theta_e
350 352 353 354 355 353 358 357 356 355 355 355 354 353 354 354 355 354 353 350 354 352 355 352 350 354 354 352 352 354 353 351 351
340 351 352 355 354 352 352 357 356 354 353 353 355 355 354 354 356 355 353 344 352 353 354 350 354 353 354 355 354 353 353 353 350
341 350 352 355 353 352 351 353 355 354 354 355 354 355 356 355 358 357 353 352 352 354 355 351 359 358 353 353 355 353 354 353 353
340 351 352 355 353 351 350 350 354 354 354 354 355 355 354 356 358 356 356 351 357 353 356 357 357 357 357 353 352 353 354 354 354
344 353 354 353 352 352 350 351 351 352 353 354 354 354 354 356 354 355 357 357 356 356 356 354 355 356 356 355 355 353 351 353 353
350 355 355 353 350 353 352 351 352 353 352 352 352 354 356 355 357 354 357 354 355 351 348 347 349 352 353 354 355 354 354 354 350
348 355 357 352 351 352 351 353 355 354 353 355 351 354 356 357 357 357 356 352 348 348 347 346 346 346 346 347 348 348 351 350 351
351 353 355 355 354 358 357 357 356 355 353 357 353 355 357 357 355 353 349 349 348 347 347 347 346 346 346 344 341 342 345 345 343
350 355 357 355 356 358 358 358 358 357 357 357 353 358 357 355 353 350 350 350 349 348 346 345 344 344 343 341 335 334 334 335 340
350 356 357 356 356 356 358 360 360 361 361 360 357 358 356 356 353 353 351 350 348 345 345 344 343 342 342 342 336 332 332 332 340
350 354 356 358 355 356 358 360 360 359 361 358 358 358 356 355 353 352 350 347 345 345 343 342 341 341 341 339 331 329 329 329 334
348 354 355 358 353 355 359 359 359 361 361 361 360 359 356 353 350 350 348 346 346 344 342 340 340 339 338 337 332 328 327 327 334
351 351 353 354 354 354 360 361 361 362 364 362 361 358 353 352 350 349 347 347 345 341 340 340 340 337 335 334 332 328 325 325 327
353 354 353 354 353 360 361 361 361 363 364 361 359 353 351 349 346 346 345 343 340 340 340 339 337 336 333 333 331 330 322 319 324
352 354 358 357 358 361 361 361 361 363 360 353 351 349 346 345 345 345 343 341 337 336 335 333 333 332 331 331 330 324 316 317 319
353 354 356 356 357 360 360 358 359 355 350 347 344 344 344 344 343 341 338 335 334 332 330 326 327 329 331 333 330 324 319 316 316
354 354 354 354 356 359 357 354 354 352 349 345 346 346 343 341 339 336 333 331 330 329 328 330 331 330 330 329 321 322 321 321 321
354 355 354 354 357 356 355 353 352 350 350 347 348 345 341 338 337 334 333 332 331 329 326 328 328 329 331 325 321 320 319 317 319
352 355 354 354 352 352 352 351 349 349 349 348 347 343 341 338 337 335 334 332 328 328 328 323 323 326 327 319 319 315 309 307 308
351 352 353 355 353 350 350 351 350 348 349 346 344 343 339 339 337 334 334 331 329 325 320 318 318 318 318 315 313 309 308 306 308
Wind_Speed
14 13 13 13 11 11 23 21 20 17 20 22 24 26 24 21 20 16 14 16 13 16 10 6 5 7 11 12 11 12 12 13 13
5 14 15 16 14 14 15 26 20 20 22 22 22 20 17 17 17 12 12 3 15 7 5 3 5 4 7 8 11 11 12 12 15
9 15 15 17 14 17 16 20 22 23 26 23 21 19 20 15 15 12 10 17 10 6 3 4 1 2 4 4 7 8 10 12 12
4 19 14 15 14 20 18 18 25 27 24 21 16 12 15 15 12 8 8 8 5 4 3 2 2 3 4 6 5 7 8 9 8
9 14 15 14 13 18 18 17 19 19 20 24 20 21 18 17 12 8 5 6 5 3 3 2 2 2 3 4 6 6 6 5 5
8 13 13 13 14 13 15 19 17 18 16 21 19 18 19 17 12 11 10 10 8 7 5 6 7 5 6 6 4 4 5 4 3
11 11 12 11 13 13 15 16 19 20 17 16 21 18 18 14 13 16 13 13 9 8 7 5 5 5 4 4 5 6 8 4 5
10 10 14 12 11 12 15 16 17 17 17 15 24 25 18 15 15 19 18 12 8 6 4 5 3 2 4 2 4 4 4 4 5
7 10 14 13 14 16 17 20 19 19 19 20 23 20 22 19 17 21 16 11 8 6 4 4 4 3 3 9 7 4 1 3 2
6 11 12 14 17 15 20 23 22 20 18 19 21 11 20 21 21 17 14 11 10 8 7 6 4 3 3 5 5 3 2 1 3
9 9 12 14 14 20 26 27 25 22 18 20 18 15 18 21 21 17 15 13 12 10 6 4 4 4 2 2 4 1 4 3 2
2 8 10 13 20 23 27 26 26 24 23 22 21 19 22 26 26 25 18 16 15 14 10 7 4 5 4 4 4 2 2 2 2
6 5 7 12 13 24 27 26 26 23 21 21 23 25 28 28 23 20 18 14 14 11 11 10 9 7 4 2 3 3 4 4 4
6 7 6 6 13 22 21 23 25 25 23 21 23 26 24 23 17 16 13 14 10 8 5 11 7 11 8 6 1 5 6 4 1
6 7 8 7 10 16 16 15 19 18 18 19 24 22 21 18 14 15 14 14 13 9 12 8 7 4 5 6 2 4 5 4 5
6 7 10 9 9 12 14 18 18 19 20 24 24 20 18 17 16 15 16 19 16 11 4 8 9 9 5 4 4 2 4 3 3
6 6 8 11 11 13 14 18 19 22 26 25 23 20 18 15 14 14 15 15 13 12 12 14 13 12 8 6 7 5 7 3 1
7 9 10 5 9 14 13 16 19 20 24 26 23 22 22 20 18 18 17 14 13 13 14 13 11 10 8 9 13 12 9 5 3
1 9 9 12 7 7 15 17 17 18 25 25 21 19 20 20 18 18 19 17 14 17 14 12 13 13 16 12 11 6 4 4 5
4 6 12 17 17 18 14 14 16 18 23 23 24 21 22 21 19 19 18 17 17 14 12 9 8 10 10 6 5 3 2 2 4
Wind_Direction
127 141 135 146 153 163 155 162 160 170 175 175 180 187 203 217 223 216 206 216 230 224 214 216 214 229 225 215 211 210 213 213 210
188 149 151 146 148 164 162 157 159 163 164 179 184 197 206 211 218 216 215 98 253 202 209 209 225 261 242 222 217 207 212 211 217
161 144 143 141 150 160 174 168 166 168 177 181 194 205 187 205 220 204 181 176 192 133 193 199 112 199 209 237 232 223 210 217 218
11 140 142 137 149 158 173 186 163 171 184 183 195 198 194 193 207 201 170 185 192 191 176 162 203 204 182 200 197 221 221 220 222
86 125 131 138 150 152 169 181 175 172 169 177 187 194 205 184 181 174 186 183 171 132 135 122 165 155 169 160 180 196 201 210 213
115 126 137 149 154 151 168 168 172 163 177 172 187 182 179 167 166 167 187 176 147 124 108 50 102 81 83 101 127 174 172 171 186
140 143 142 159 156 156 164 159 158 159 181 188 169 171 154 163 186 177 170 146 134 138 127 112 111 95 90 93 102 110 95 95 104
140 155 157 160 151 141 144 144 151 156 184 194 176 168 157 171 198 143 129 129 119 116 129 118 97 107 105 84 87 90 103 96 42
150 161 163 161 146 148 152 155 163 178 193 173 177 176 171 168 134 128 132 134 139 129 109 101 97 82 87 74 64 58 91 202 64
167 164 177 166 156 158 159 164 173 185 186 161 167 168 157 142 134 129 137 151 150 152 155 148 139 120 119 86 30 24 38 109 18
163 178 180 166 163 167 169 171 176 178 172 165 164 156 156 143 142 147 159 165 169 160 165 166 154 145 131 84 11 35 17 13 1
129 163 169 171 178 170 168 173 174 176 171 164 157 159 160 162 171 173 172 171 180 168 164 161 169 147 139 129 20 42 35 332 28
96 112 168 174 183 162 161 164 169 168 159 166 163 169 173 174 178 178 167 179 179 166 164 166 164 146 149 91 338 334 315 308 311
110 133 180 169 186 152 159 163 170 170 165 168 170 159 171 172 173 170 166 153 152 158 189 157 140 137 140 146 74 320 322 301 261
149 145 134 178 144 140 153 169 170 156 152 156 152 148 148 153 159 160 159 177 168 152 138 102 124 177 173 214 174 315 331 322 253
145 153 147 180 168 149 134 130 142 141 143 149 145 148 159 160 167 174 181 172 159 149 174 189 211 225 177 229 153 255 313 5 24
137 129 164 179 177 155 136 139 149 156 162 165 163 159 161 173 185 170 176 178 180 179 189 201 216 222 230 158 180 217 244 243 286
150 155 164 187 140 147 163 160 165 171 169 174 171 165 167 168 177 177 172 168 178 192 204 221 215 215 242 212 186 174 185 228 209
304 161 163 150 163 168 165 177 170 184 177 175 169 167 167 174 177 187 174 174 179 200 214 223 229 233 212 165 159 167 235 248 252
324 318 174 162 172 170 179 179 184 188 175 177 179 181 177 186 173 176 179 183 188 181 183 195 189 164 157 148 168 168 219 228 237